Dewpoint
41 41 41 42 43 60 66 66 68 68 68 69 68 68 67 68 68 68 67 66 64 63 62 62 61 60 59 57 54 56 56 55
42 41 41 42 43 56 65 65 67 68 67 67 67 67 68 67 67 68 67 67 64 63 62 61 60 58 58 58 56 56 55 56
41 40 42 43 44 54 65 65 67 67 66 67 67 67 67 67 68 68 67 67 64 63 61 59 59 58 58 57 55 55 55 55
38 38 40 43 43 56 65 65 67 67 67 67 68 68 68 67 67 68 68 67 65 63 60 59 58 58 58 58 58 54 55 55
37 37 38 43 43 52 64 65 66 67 67 67 67 65 65 66 67 68 68 67 66 64 60 59 58 57 58 58 59 57 56 54
38 37 41 52 52 51 60 66 66 66 67 66 66 64 65 65 67 67 67 67 66 65 61 59 58 57 58 58 58 56 56 55
43 45 47 47 47 49 57 61 66 67 66 66 66 65 65 65 65 66 67 67 67 66 64 60 58 58 58 59 59 57 56 55
43 44 44 45 46 48 50 52 52 56 58 62 65 65 65 64 65 65 65 65 66 66 66 62 59 57 58 59 59 58 57 56
38 39 40 40 42 44 45 47 49 52 56 58 60 63 64 64 64 65 66 65 66 67 66 64 61 59 58 58 59 59 58 57
34 35 37 37 38 40 41 40 42 46 52 54 57 60 62 61 60 64 65 66 66 66 66 65 63 61 60 58 58 58 58 58
37 36 35 35 36 39 41 42 42 41 44 50 53 55 60 62 62 63 63 65 65 65 65 65 65 62 61 59 58 58 58 58
41 39 38 35 35 36 37 38 41 42 43 44 48 54 56 57 58 58 58 59 60 62 64 65 65 65 63 60 59 58 57 57
41 40 39 36 34 35 35 36 38 42 44 44 44 46 51 54 56 56 57 56 56 55 57 63 64 64 63 61 59 58 56 57
41 39 39 39 37 38 38 37 36 39 41 42 43 44 46 47 53 55 54 54 54 54 54 55 57 63 63 61 59 59 57 56
40 37 37 36 33 32 32 35 36 39 39 41 42 42 44 45 47 51 51 51 50 51 52 53 54 55 60 62 61 60 58 57
37 34 31 34 32 30 32 33 34 37 37 38 41 43 43 44 45 46 47 47 49 49 49 49 50 52 55 55 60 60 60 58
29 23 25 27 24 24 28 31 33 35 34 35 36 38 43 42 42 43 47 46 43 45 43 46 47 50 44 42 45 53 60 59
21 20 20 21 22 24 25 28 32 32 32 34 35 35 37 38 38 41 43 44 43 42 42 43 43 44 41 40 40 49 51 58
23 24 25 26 27 28 29 30 31 32 31 32 34 34 34 35 36 36 39 43 43 42 41 41 42 43 38 38 38 45 47 51
Lifted_Index
2 2 1 1 1 -1 -3 -4 -5 -5 -5 -5 -6 -6 -6 -6 -6 -6 -6 -6 -5 -4 -4 -3 -3 -3 -2 0 3 3 2 2
2 2 2 2 1 -1 -3 -4 -5 -5 -5 -5 -5 -6 -6 -6 -6 -6 -6 -6 -5 -4 -4 -3 -3 -3 -3 -1 1 2 2 2
1 2 2 2 1 -0 -3 -4 -5 -5 -5 -5 -5 -6 -6 -6 -7 -7 -7 -6 -5 -5 -4 -4 -4 -4 -4 -3 -0 1 2 1
1 2 2 2 2 -0 -2 -4 -4 -5 -5 -5 -6 -6 -6 -6 -7 -7 -7 -6 -5 -5 -5 -5 -4 -4 -4 -3 -1 0 1 1
2 2 2 2 2 1 -2 -4 -4 -5 -5 -5 -6 -6 -6 -6 -6 -6 -6 -6 -5 -6 -6 -5 -5 -4 -4 -3 -2 -0 1 1
3 3 3 3 3 2 -1 -3 -4 -4 -5 -5 -5 -5 -5 -5 -6 -6 -6 -6 -6 -6 -6 -5 -5 -4 -4 -3 -2 -1 -1 -0
3 3 3 3 3 2 -0 -3 -4 -4 -4 -5 -5 -5 -5 -5 -5 -5 -6 -6 -6 -6 -6 -5 -5 -5 -4 -3 -3 -2 -1 -1
2 3 3 3 3 2 0 -1 -2 -3 -3 -4 -4 -4 -4 -4 -4 -4 -5 -6 -6 -6 -6 -5 -5 -5 -4 -4 -3 -2 -1 -1
2 2 2 2 2 1 0 -0 -1 -1 -2 -3 -3 -4 -4 -3 -3 -3 -4 -5 -5 -5 -5 -5 -5 -4 -4 -3 -3 -2 -1 -1
2 1 2 2 2 1 1 1 0 0 -1 -1 -2 -3 -3 -3 -3 -3 -3 -3 -3 -4 -4 -4 -4 -4 -3 -3 -3 -2 -1 -1
3 3 3 4 4 4 3 2 2 1 1 0 -0 -1 -2 -2 -2 -3 -3 -3 -2 -2 -3 -3 -3 -3 -3 -2 -2 -2 -1 -1
5 5 6 7 7 7 6 5 5 5 4 3 2 1 -0 -1 -2 -2 -3 -3 -2 -2 -2 -3 -3 -3 -3 -2 -2 -2 -2 -1
7 7 8 8 8 8 8 8 8 8 8 7 5 4 2 1 -0 -1 -1 -2 -2 -2 -2 -2 -2 -2 -2 -2 -2 -2 -2 -2
8 8 8 8 8 8 8 9 9 10 10 10 9 8 7 6 4 2 2 2 1 -0 -0 0 -0 -1 -2 -2 -2 -2 -2 -2
9 9 9 9 9 9 9 9 10 12 12 11 11 10 10 9 8 7 6 6 5 4 4 3 2 0 -1 -1 -1 -1 -1 -1
11 11 11 11 11 12 11 11 11 13 14 13 13 12 11 10 10 9 8 8 8 8 8 7 5 2 1 0 -0 -0 -0 -1
10 11 11 12 13 13 13 13 12 13 14 14 14 13 12 11 11 10 10 9 9 9 9 9 8 6 3 2 1 1 0 -0
9 10 11 12 12 13 13 13 13 13 14 14 13 13 13 13 13 12 12 11 10 9 9 9 9 8 6 5 3 2 1 0
9 9 10 10 11 12 12 12 13 13 13 13 12 13 13 13 13 13 13 12 11 10 9 9 9 9 8 6 5 3 2 1